Waarnemingen

Advertentie
Mijn weer
Leutkirch-Herlazhofen, Duitsland (10945): temperatuur & dauwpunt: 13.01.2018 18:00:00 - 19.01.2018 18:00:00 (CET)Leutkirch-Herlazhofen, Duitsland (10945): temperatuur 5cm & temperatuur -5cm: 13.01.2018 18:00:00 - 19.01.2018 18:00:00 (CET)Leutkirch-Herlazhofen, Duitsland (10945): temperatuur -20cm & temperatuur -100cm: 13.01.2018 18:00:00 - 19.01.2018 18:00:00 (CET)Leutkirch-Herlazhofen, Duitsland (10945): windsnelheid & windstoten: 13.01.2018 18:00:00 - 19.01.2018 18:00:00 (CET)Leutkirch-Herlazhofen, Duitsland (10945): windrichting: 13.01.2018 18:00:00 - 19.01.2018 18:00:00 (CET)Leutkirch-Herlazhofen, Duitsland (10945): luchtdruk: 13.01.2018 18:00:00 - 19.01.2018 18:00:00 (CET)Leutkirch-Herlazhofen, Duitsland (10945): zicht: 13.01.2018 18:00:00 - 19.01.2018 18:00:00 (CET)Leutkirch-Herlazhofen, Duitsland (10945): Zonneschijnduur: 13.01.2018 18:00:00 - 19.01.2018 18:00:00 (CET)Leutkirch-Herlazhofen, Duitsland (10945): neerslag: 13.01.2018 18:00:00 - 19.01.2018 18:00:00 (CET)
Datum & Tijd tt [°C] td [°C] tt 5cm [°C] tt -5cm [°C] tt -20cm [°C] tt -100cm [°C] ff [km/u] ff [kn] fx [km/u] fx [kn] dd ppp [hPa] vv [km] sd [min] rr [mm]
19.01.2018 18:00:00 0,5 -0,7 -0,3 1,2 1,9 3,9 16 9 24 13 ZZW 1014,5 39 0 0,0
19.01.2018 17:00:00 1,7 -1,8 0,5 1,6 1,9 3,9 18 10 27 15 ZW 1014,1 70 0 0,0
19.01.2018 16:00:00 2,0 -2,4 1,1 2,0 1,8 3,9 16 8 35 19 ZW 1014,3 70 0 0,0
19.01.2018 15:00:00 2,2 -1,6 1,7 2,2 1,7 3,9 22 12 39 21 WZW 1014,0 70 7 0,0
19.01.2018 14:00:00 2,3 -0,6 2,4 2,2 1,7 3,9 19 10 31 17 ZW 1014,3 70 1 0,0
19.01.2018 13:00:00 2,1 -0,6 1,8 2,1 1,6 3,9 17 9 34 18 ZW 1014,7 70 8 0,0
19.01.2018 12:00:00 2,1 -0,3 2,1 1,6 1,6 3,9 19 10 26 14 WZW 1015,1 63 1 0,0
19.01.2018 11:00:00 1,8 -1,3 1,0 1,2 1,7 3,9 22 12 45 25 W 1015,2 56 10 0,0
19.01.2018 10:00:00 1,7 -1,0 1,0 0,9 1,7 3,9 22 12 36 20 ZW 1014,5 70 0 0,0
19.01.2018 09:00:00 1,4 0,0 0,0 1,0 1,8 3,9 21 11 32 17 ZW 1013,3 70 0 0,0
19.01.2018 08:00:00 0,8 -0,1 -0,1 1,2 1,8 3,9 17 9 32 18 WZW 1012,1 70 0 0,6
19.01.2018 07:00:00 0,5 -0,2 -0,1 1,7 1,8 3,9 26 14 51 28 W 1011,1 1,1 0 3,0
19.01.2018 06:00:00 2,8 1,6 2,3 2,1 1,7 3,9 29 15 54 29 ZW 1009,0 26 0 0,5
19.01.2018 05:00:00 3,4 1,9 2,9 2,2 1,6 3,9 29 16 48 26 WZW 1008,0 70 0 0,4
19.01.2018 04:00:00 3,5 2,5 3,0 2,1 1,6 3,9 27 15 41 22 W 1008,1 5 0 1,8
19.01.2018 03:00:00 2,9 1,7 2,4 2,0 1,5 3,9 26 14 55 30 WZW 1008,2 9 0 1,9
19.01.2018 02:00:00 3,2 2,2 2,6 1,9 1,4 4,0 27 14 42 23 WZW 1008,1 10 0 3,2
19.01.2018 01:00:00 2,9 1,8 2,4 2,1 1,3 4,0 17 9 42 23 WZW 1008,0 12 0 2,5
19.01.2018 00:00:00 3,4 2,6 3,0 2,1 1,2 4,0 21 11 53 28 WNW 1008,0 3,9 0 2,5
18.01.2018 23:00:00 4,0 2,7 3,4 1,7 1,1 4,0 32 17 54 29 W 1007,6 7 0 1,4
18.01.2018 22:00:00 4,2 2,6 3,4 1,4 1,0 4,0 34 18 55 30 W 1007,7 13 0 2,0
18.01.2018 21:00:00 5,6 2,6 4,0 0,9 1,0 4,0 35 19 67 36 W 1006,6 8 0 0,2
18.01.2018 20:00:00 6,0 2,1 4,1 0,4 1,0 4,1 40 22 68 37 WZW 1006,2 20 0 0,0
18.01.2018 19:00:00 5,9 1,9 4,6 0,2 1,0 4,1 40 21 71 38 WZW 1006,1 70 0 0,0
18.01.2018 18:00:00 5,7 1,8 4,2 0,2 1,2 4,2 47 26 74 40 WZW 1005,9 70 0 0,0
18.01.2018 17:00:00 5,9 1,5 4,3 0,4 1,3 4,3 45 24 68 37 WZW 1006,2 70 2 0,0
18.01.2018 16:00:00 5,5 1,5 3,2 0,5 1,4 4,3 46 25 77 41 ZW 1006,8 43 1 0,0
18.01.2018 15:00:00 4,8 1,5 0,1 0,5 1,4 4,3 37 20 66 36 ZW 1007,3 37 0 0,0
18.01.2018 14:00:00 3,4 1,1 -0,1 0,6 1,4 4,3 37 20 58 31 ZW 1008,7 16 0 0,3
18.01.2018 13:00:00 2,4 1,4 -0,1 0,6 1,4 4,3 33 18 53 28 ZW 1009,8 4,0 0 0,5
18.01.2018 12:00:00 1,5 0,8 -0,1 0,6 1,4 4,3 32 17 46 25 ZW 1010,6 6 0 1,3
18.01.2018 11:00:00 1,2 0,3 -0,1 0,6 1,5 4,3 26 14 44 24 ZZW 1011,3 7 0 0,5
18.01.2018 10:00:00 0,7 -0,2 -0,1 0,6 1,5 4,3 34 18 47 26 ZW 1011,5 3,3 0 0,2
18.01.2018 09:00:00 0,0 -1,0 -0,2 0,6 1,5 4,3 35 19 53 28 ZW 1011,4 2,7 0 0,0
18.01.2018 08:00:00 0,1 -1,3 -0,3 0,6 1,5 4,3 28 15 44 24 ZW 1011,8 3,2 0 0,0
18.01.2018 07:00:00 -0,1 -1,2 -0,3 0,6 1,5 4,3 26 14 40 22 ZW 1013,1 2,0 0 0,1
18.01.2018 06:00:00 0,0 -0,8 -0,3 0,6 1,5 4,3 24 13 41 22 ZW 1014,2 3,0 0 0,1
18.01.2018 05:00:00 0,0 -0,9 -0,3 0,6 1,5 4,3 33 18 49 26 ZW 1015,2 4,2 0 0,1
18.01.2018 04:00:00 0,3 -1,8 -0,3 0,6 1,5 4,3 30 16 50 27 ZW 1016,4 2,1 0 0,0
18.01.2018 03:00:00 0,1 -1,6 -0,5 0,7 1,5 4,3 31 17 46 25 ZW 1017,1 35 0 0,0
18.01.2018 02:00:00 -0,2 -2,2 -0,6 0,7 1,5 4,3 28 15 53 28 ZW 1017,1 40 0 0,0
18.01.2018 01:00:00 0,0 -2,7 -0,6 0,7 1,5 4,3 32 17 46 25 WZW 1017,2 21 0 0,0
18.01.2018 00:00:00 -0,7 -1,8 -0,5 0,7 1,5 4,3 22 12 40 21 ZW 1017,3 2,8 0 0,1
17.01.2018 23:00:00 -0,3 -1,9 -0,5 0,7 1,6 4,3 31 17 47 26 WZW 1017,0 1,1 0 0,0
17.01.2018 22:00:00 -0,1 -2,3 -0,5 0,7 1,6 4,3 31 17 46 25 WZW 1016,7 38 0 0,0
17.01.2018 21:00:00 -0,2 -2,5 -0,6 0,7 1,6 4,3 34 18 52 28 WZW 1016,0 30 0 0,0
17.01.2018 20:00:00 -0,5 -2,1 -0,7 0,7 1,6 4,3 30 16 47 26 WZW 1015,6 4,3 0 0,0
17.01.2018 19:00:00 -0,6 -2,5 -0,9 0,7 1,6 4,3 32 17 49 26 WZW 1014,7 30 0 0,0
17.01.2018 18:00:00 -0,5 -3,0 -0,9 0,7 1,6 4,3 29 16 45 25 WZW 1014,2 60 0 0,0
17.01.2018 17:00:00 -0,3 -3,6 -0,7 0,7 1,7 4,3 25 14 41 22 WZW 1013,3 68 0 0,0
17.01.2018 16:00:00 -0,4 -3,1 -0,6 0,7 1,7 4,3 27 14 37 20 WZW 1012,5 45 10 0,0
17.01.2018 15:00:00 -0,8 -2,9 -0,3 0,7 1,7 4,3 24 13 43 23 WZW 1012,0 40 0 0,0
17.01.2018 14:00:00 -0,6 -4,4 -0,2 0,8 1,7 4,3 29 16 44 24 W 1011,1 17 9 0,0
17.01.2018 13:00:00 -0,9 -3,5 -0,1 0,8 1,8 4,3 28 15 61 33 W 1009,5 22 7 0,1
17.01.2018 12:00:00 -0,2 -2,1 -0,3 0,8 1,8 4,3 30 16 66 36 WZW 1008,3 16 2 1,5
17.01.2018 11:00:00 -0,4 -2,0 -0,6 0,8 1,8 4,3 26 14 48 26 W 1007,7 20 0 0,0
17.01.2018 10:00:00 -0,1 -2,0 -0,4 0,8 1,9 4,3 33 18 68 37 W 1006,1 4,2 0 0,0
17.01.2018 09:00:00 0,9 -1,9 0,0 0,9 1,9 4,4 36 19 58 31 ZW 1003,6 54 0 0,0
17.01.2018 08:00:00 0,9 -0,9 -0,1 0,9 2,0 4,4 32 18 58 31 WZW 1003,4 70 0 0,0
17.01.2018 07:00:00 0,5 -0,3 -0,1 1,0 2,0 4,4 33 18 48 26 ZW 1002,6 42 0 0,3
17.01.2018 06:00:00 0,0 -0,4 -0,1 1,2 2,1 4,4 26 14 43 23 WZW 1002,0 1,9 0 1,3
17.01.2018 05:00:00 0,1 -0,3 -0,1 1,5 2,1 4,4 21 11 53 29 W 1001,3 0,7 0 1,9
17.01.2018 04:00:00 1,7 0,5 1,2 1,8 2,1 4,4 37 20 54 29 WZW 1001,0 28 0 0,6
17.01.2018 03:00:00 1,9 0,8 1,3 1,8 2,1 4,4 31 17 48 26 W 1000,7 4,8 0 0,9
17.01.2018 02:00:00 1,6 0,7 1,3 1,9 2,1 4,4 19 10 34 19 ZW 1000,6 58 0 0,3
17.01.2018 01:00:00 2,1 0,8 1,6 2,0 2,1 4,4 22 12 50 27 ZW 1001,4 70 0 0,3
17.01.2018 00:00:00 2,9 1,7 2,3 1,9 2,1 4,4 24 13 36 19 ZW 1001,7 70 0 0,2
16.01.2018 23:00:00 1,6 0,7 1,0 2,0 2,1 4,4 17 9 36 19 ZW 1002,8 16 0 0,7
16.01.2018 22:00:00 1,7 0,6 1,5 2,4 2,1 4,4 16 9 53 29 NW 1002,6 26 0 1,3
16.01.2018 21:00:00 3,2 2,2 2,8 2,4 2,0 4,5 22 12 38 21 ZW 1001,9 22 0 0,0
16.01.2018 20:00:00 3,3 2,2 2,8 2,4 2,0 4,5 22 12 47 25 WZW 1002,4 70 0 0,6
16.01.2018 19:00:00 3,5 2,0 2,8 2,5 1,9 4,5 29 16 53 29 WZW 1002,8 11 0 0,2
16.01.2018 18:00:00 3,7 2,1 2,9 2,6 1,8 4,5 22 12 41 22 ZW 1002,7 70 0 0,2
16.01.2018 17:00:00 4,0 2,5 3,3 2,7 1,7 4,5 26 14 56 31 WZW 1002,6 70 0 1,3
16.01.2018 16:00:00 3,7 2,4 3,1 2,9 1,5 4,5 45 24 85 46 W 1002,3 3,5 0 5,4
16.01.2018 15:00:00 6,0 4,0 4,5 2,5 1,4 4,5 48 26 82 44 WZW 1000,0 2,4 0 1,7
16.01.2018 14:00:00 4,8 4,0 4,4 2,2 1,3 4,5 30 16 59 32 WZW 1000,4 4,3 0 2,5
16.01.2018 13:00:00 5,3 3,3 4,5 1,8 1,2 4,5 36 20 63 34 WZW 1001,0 39 0 0,8
16.01.2018 12:00:00 5,8 2,4 4,5 1,0 1,2 4,5 33 18 62 33 WZW 1001,9 20 0 0,0
16.01.2018 11:00:00 5,2 2,7 4,0 0,3 1,2 4,5 30 16 55 30 WZW 1003,0 14 0 1,0
16.01.2018 10:00:00 4,5 2,8 3,9 0,2 1,2 4,5 24 13 49 26 ZW 1002,9 70 0 0,8
16.01.2018 09:00:00 3,9 1,9 2,7 0,2 1,2 4,5 37 20 53 29 ZW 1003,0 3,8 0 0,6
16.01.2018 08:00:00 3,7 0,5 2,2 0,2 1,2 4,5 29 15 45 24 ZZW 1002,8 23 0 0,2
16.01.2018 07:00:00 3,2 0,3 1,8 0,2 1,2 4,5 31 17 48 26 ZZW 1003,2 53 0 0,4
16.01.2018 06:00:00 2,5 0,7 1,4 0,2 1,3 4,6 17 9 29 16 ZZW 1004,5 33 0 0,2
16.01.2018 05:00:00 2,0 0,4 1,2 0,2 1,3 4,6 17 9 47 25 Z 1005,7 70 0 0,0
16.01.2018 04:00:00 2,0 0,1 0,9 0,2 1,3 4,6 29 16 45 24 ZZW 1006,3 12 0 0,8
16.01.2018 03:00:00 1,1 0,1 0,4 0,2 1,3 4,6 22 12 32 17 ZZW 1006,9 7 0 1,1
16.01.2018 02:00:00 1,1 -0,1 0,4 0,2 1,3 4,6 23 13 37 20 ZZW 1007,3 10 0 0,5
16.01.2018 01:00:00 1,6 -0,6 0,7 0,1 1,3 4,6 19 11 32 17 ZZW 1007,6 18 0 0,2
16.01.2018 00:00:00 2,1 -1,4 1,1 0,1 1,3 4,6 19 10 40 22 ZW 1008,5 21 0 0,0
15.01.2018 23:00:00 2,6 -3,7 1,7 0,1 1,3 4,6 14 8 34 18 ZZW 1008,9 45 0 0,0
15.01.2018 22:00:00 2,6 -2,7 1,6 0,1 1,3 4,6 11 6 25 14 ZZW 1010,0 29 0 0,0
15.01.2018 21:00:00 2,1 -2,3 1,2 0,1 1,3 4,6 15 8 21 11 Z 1010,9 22 0 0,0
15.01.2018 20:00:00 1,6 -2,5 0,5 0,1 1,3 4,6 11 6 16 9 ZZW 1011,8 21 0 0,0
15.01.2018 19:00:00 0,8 -3,1 -0,7 0,1 1,3 4,6 8 4 12 6 Z 1012,3 32 0 0,0
15.01.2018 18:00:00 0,8 -4,5 -0,5 0,1 1,3 4,6 7 4 9 5 ZZW 1013,3 70 0 0,0
15.01.2018 17:00:00 0,8 -4,2 -1,8 0,1 1,3 4,6 5 3 10 6 ZW 1014,7 51 0 0,0
15.01.2018 16:00:00 2,4 -3,5 1,0 0,1 1,3 4,6 6 4 10 5 ZW 1015,5 57 0 0,0
15.01.2018 15:00:00 2,5 -2,5 1,6 0,0 1,3 4,6 6 4 11 6 Z 1016,5 35 0 0,0
15.01.2018 14:00:00 2,8 -3,6 2,8 0,0 1,3 4,6 11 6 15 8 WZW 1017,3 39 0 0,0
15.01.2018 13:00:00 3,5 -4,6 3,8 0,0 1,3 4,6 9 5 17 9 ZZW 1018,3 49 43 0,0
15.01.2018 12:00:00 2,6 -4,7 3,3 0,0 1,3 4,6 9 5 14 8 ZZW 1020,0 36 60 0,0
15.01.2018 11:00:00 0,3 -4,1 0,9 0,0 1,4 4,6 8 4 13 7 Z 1022,0 22 60 0,0
15.01.2018 10:00:00 -2,0 -4,9 -1,9 -0,1 1,4 4,6 9 5 11 6 Z 1023,0 9 60 0,0
15.01.2018 09:00:00 -4,1 -5,1 -4,3 0,0 1,4 4,6 7 4 14 8 Z 1023,8 2,6 15 0,0
15.01.2018 08:00:00 -3,2 -3,9 -3,6 0,0 1,4 4,6 10 5 14 7 Z 1023,8 2,6 0 0,0
15.01.2018 07:00:00 -2,9 -3,8 -3,3 0,0 1,4 4,6 6 3 16 9 ZZW 1023,7 3,4 0 0,0
15.01.2018 06:00:00 -3,0 -3,8 -3,0 0,1 1,4 4,6 8 4 18 10 ZZW 1024,0 2,9 0 0,0
15.01.2018 05:00:00 -5,4 -6,3 -7,1 0,1 1,4 4,6 2 1 10 5 WZW 1025,0 4,5 0 0,0
15.01.2018 04:00:00 -4,2 -5,1 -7,0 0,2 1,5 4,6 5 3 10 5 Z 1024,7 4,7 0 0,0
15.01.2018 03:00:00 -3,3 -4,3 -5,0 0,2 1,5 4,6 9 5 11 6 Z 1024,7 4,6 0 0,0
15.01.2018 02:00:00 -3,2 -4,3 -5,5 0,2 1,5 4,7 6 4 11 6 Z 1025,0 4,9 0 0,0
15.01.2018 01:00:00 -2,0 -3,9 -3,3 0,2 1,5 4,7 8 4 12 7 ZW 1025,1 7 0 0,0
15.01.2018 00:00:00 -1,4 -3,9 -1,7 0,2 1,5 4,7 10 5 19 10 ZW 1024,9 8 0 0,0
14.01.2018 23:00:00 -1,1 -3,5 -1,3 0,2 1,5 4,7 10 6 14 8 ZW 1024,7 8 0 0,0
14.01.2018 22:00:00 -1,0 -3,7 -1,1 0,2 1,5 4,7 10 5 16 9 ZZW 1024,8 8 0 0,0
14.01.2018 21:00:00 -0,7 -3,2 -1,0 0,2 1,5 4,7 8 4 13 7 ZZW 1024,4 8 0 0,0
14.01.2018 20:00:00 -0,7 -2,6 -1,0 0,2 1,5 4,7 4 2 6 3 ZZW 1024,0 9 0 0,0
14.01.2018 19:00:00 -0,7 -3,0 -1,0 0,2 1,6 4,7 2 1 7 4 NNO 1023,7 11 0 0,0
14.01.2018 18:00:00 -0,6 -2,7 -1,0 0,2 1,6 4,7 3 1 5 3 NNW 1023,3 10 0 0,0
14.01.2018 17:00:00 -0,5 -2,8 -0,8 0,1 1,6 4,7 5 3 8 4 NNW 1022,9 12 0 0,0
14.01.2018 16:00:00 -0,2 -3,0 -0,2 0,1 1,6 4,7 5 3 8 5 NW 1022,5 12 0 0,0
14.01.2018 15:00:00 -0,1 -3,2 0,1 0,1 1,6 4,7 5 3 8 5 N 1022,1 12 0 0,0
14.01.2018 14:00:00 -0,1 -2,8 0,1 0,1 1,6 4,7 5 3 11 6 NNW 1022,0 10 0 0,0
14.01.2018 13:00:00 -0,4 -3,0 0,0 0,1 1,7 4,7 3 1 4 2 NO 1022,3 8 0 0,0
14.01.2018 12:00:00 -1,1 -2,5 -0,9 0,1 1,7 4,7 2 1 4 2 NNW 1023,2 6 0 0,0
14.01.2018 11:00:00 -1,5 -2,8 -1,4 0,1 1,7 4,7 0 0 4 2 N 1023,5 8 0 0,0
14.01.2018 10:00:00 -2,1 -3,5 -2,0 0,1 1,8 4,7 4 2 7 4 Z 1023,4 8 0 0,0
14.01.2018 09:00:00 -2,6 -3,6 -2,5 0,1 1,8 4,7 4 2 6 4 ZO 1023,1 6 0 0,0
14.01.2018 08:00:00 -3,1 -4,2 -3,1 0,1 1,9 4,7 3 2 8 5 OZO 1023,2 8 0 0,0
14.01.2018 07:00:00 -4,3 -5,1 -4,2 0,1 1,9 4,7 4 2 5 3 ZO 1023,1 5 0 0,0
14.01.2018 06:00:00 -5,1 -5,6 -8,3 0,2 2,0 4,7 0 0 3 2 N 1023,1 4,5 0 0,0
14.01.2018 05:00:00 -5,5 -6,0 -9,3 0,3 2,0 4,7 0 0 3 1 N 1023,2 3,1 0 0,0
14.01.2018 04:00:00 -5,2 -5,5 -9,3 0,4 2,1 4,7 1 0 3 2 W 1023,2 3,3 0 0,0
14.01.2018 03:00:00 -5,4 -6,3 -9,0 0,5 2,1 4,7 0 0 3 2 N 1023,4 0,4 0 0,0
14.01.2018 02:00:00 -4,7 -5,1 -8,6 0,6 2,2 4,7 0 0 4 2 N 1023,4 2,3 0 0,0
14.01.2018 01:00:00 -4,6 -5,1 -8,3 0,7 2,2 4,7 0 0 3 2 N 1023,3 3,4 0 0,0
14.01.2018 00:00:00 -4,9 -5,5 -8,3 0,7 2,3 4,7 0 0 3 2 Z 1024,0 2,0 0 0,0
13.01.2018 23:00:00 -4,7 -5,6 -7,8 0,8 2,4 4,7 0 0 4 2 N 1024,3 5 0 0,0
13.01.2018 22:00:00 -4,1 -5,0 -7,3 1,0 2,4 4,7 2 1 5 3 NW 1024,4 7 0 0,0
13.01.2018 21:00:00 -2,6 -4,1 -6,3 1,1 2,5 4,7 3 2 6 3 N 1023,9 10 0 0,0
13.01.2018 20:00:00 -3,7 -5,5 -6,3 1,3 2,5 4,7 4 2 6 4 NNO 1024,5 10 0 0,0
13.01.2018 19:00:00 -1,4 -3,4 -5,3 1,5 2,6 4,7 4 2 5 3 NNO 1023,9 13 0 0,0
13.01.2018 18:00:00 -1,2 -3,3 -5,1 1,7 2,6 4,7 3 2 12 7 NNO 1023,9 16 0 0,0

tt = temperatuur
td = dauwpunt
tt 5cm = temperatuur 5cm
tt -5cm = temperatuur -5cm
tt -20cm = temperatuur -20cm
tt -100cm = temperatuur -100cm
ff = windsnelheid
fx = windstoten
dd = windrichting
ppp = luchtdruk
vv = zicht
sd = Zonneschijnduur
rr = neerslag

Weerstations in de omgeving